Wind_Speed
46 47 50 52 55 57 58 59 59 60 62 63 64 65 66 68 69 69 69 68 69 70 72 75 78 81 82 82 80 75 70 65 59 54 48 42 38 34 30 27 26 25 26 28 31 34 39 43 46 48 51 52 56 59 61 64 66 66 65 64 64 64 63 60 58 56 54 48 42 40 40 39 36 33 33 36 40 43 46 48 51 53 54 55 55
46 49 51 54 56 58 60 60 61 62 64 65 66 67 68 69 71 71 71 70 70 71 73 76 79 82 84 84 82 77 71 65 59 53 48 41 36 31 27 24 23 22 22 25 29 33 36 38 41 45 47 49 51 54 57 61 63 64 66 66 65 65 63 59 56 52 46 40 38 38 37 34 31 30 33 37 40 43 45 48 50 52 52 53 53
48 50 52 54 57 59 61 62 63 64 65 66 67 68 69 71 72 73 72 71 71 72 74 77 81 84 85 85 84 79 74 67 60 53 47 41 35 30 26 22 20 20 20 22 26 30 32 34 37 41 44 46 48 50 53 57 60 62 64 64 64 63 59 56 52 47 40 36 36 35 33 29 27 30 35 38 41 43 46 48 49 50 51 51 51
49 51 53 55 58 60 63 64 65 65 66 67 68 69 70 72 73 73 73 72 72 74 76 78 82 85 86 86 84 80 74 68 61 54 47 41 35 30 25 21 18 17 17 19 23 25 28 30 33 37 40 43 45 47 49 52 55 57 59 60 61 59 56 53 50 45 38 34 33 31 27 25 27 33 36 38 41 44 46 47 48 49 49 49 49
50 52 54 56 59 62 64 65 65 66 66 68 69 70 70 72 74 75 74 73 74 75 77 80 83 86 87 86 85 81 75 68 62 55 47 41 35 29 24 19 16 15 15 17 20 22 25 28 30 34 38 42 45 46 48 50 51 53 55 57 58 56 53 49 45 40 34 31 31 27 23 25 31 35 36 38 41 44 44 45 46 47 47 47 46
51 53 55 57 60 63 65 66 66 66 67 69 70 70 70 72 75 76 75 74 74 76 78 81 84 87 88 87 85 82 76 68 62 55 48 42 35 28 23 18 14 13 13 15 17 20 24 27 30 34 38 41 44 45 47 49 50 51 53 54 54 53 50 45 40 35 31 30 27 22 22 27 32 34 35 38 41 42 43 44 45 45 45 44 42
52 54 55 58 60 63 65 66 66 67 68 69 70 69 69 72 75 77 76 75 75 76 79 82 85 88 89 88 86 83 77 70 62 56 49 43 35 28 22 18 14 11 10 10 12 16 21 26 30 33 37 40 43 45 47 49 49 49 50 50 50 49 46 41 36 32 29 26 22 20 24 28 31 33 36 38 40 40 41 41 42 43 43 41 39
54 55 56 58 61 63 65 67 67 67 68 70 70 70 70 72 76 78 77 76 75 77 79 83 86 89 90 90 87 84 79 72 64 57 50 43 35 27 21 17 14 11 7 5 8 15 20 24 28 32 36 39 42 44 46 47 48 49 49 48 46 43 41 38 35 31 27 22 19 22 27 30 32 34 36 38 38 38 38 39 40 41 40 38 36
55 56 57 59 61 63 65 67 68 68 69 70 71 70 70 72 76 78 78 76 76 77 79 83 86 89 90 90 88 85 80 73 66 59 51 44 36 27 20 16 12 9 4 5 9 15 20 24 27 30 34 37 39 42 44 46 48 48 47 46 43 40 39 37 33 28 24 20 21 25 29 31 33 34 35 36 35 34 35 37 38 38 37 34 33
56 57 58 60 61 64 66 67 68 68 69 70 71 70 70 72 76 78 78 77 76 77 79 83 86 88 90 90 89 85 81 75 68 61 54 45 37 28 21 15 11 7 3 6 10 14 18 22 26 29 33 36 39 41 43 45 45 44 43 43 41 40 38 35 30 26 23 23 25 28 30 32 34 33 32 31 30 32 34 36 36 35 34 32 30
56 57 59 60 62 64 66 68 69 68 68 70 71 71 70 71 75 78 78 77 76 77 79 82 85 88 89 90 89 86 82 77 70 63 56 47 38 29 21 15 10 7 1 5 10 12 15 18 23 27 30 32 35 39 42 42 41 40 40 40 38 36 34 31 27 24 23 24 26 28 29 31 30 29 28 27 28 31 33 34 34 33 31 29 28
57 58 60 61 63 65 66 68 69 68 68 70 71 71 70 71 75 78 78 77 76 77 78 81 84 87 88 89 89 87 84 79 72 66 58 49 39 30 22 16 11 8 3 5 8 10 13 18 22 25 27 30 33 37 39 38 37 37 36 34 31 28 26 25 23 22 21 21 22 24 26 27 26 25 25 25 28 30 32 32 31 30 28 27 27
57 59 61 62 64 65 67 68 68 68 67 69 71 71 70 71 74 77 78 77 76 76 78 79 83 86 87 88 89 88 85 80 75 68 60 52 42 33 25 19 14 9 5 5 7 9 12 17 22 25 27 30 33 35 35 33 33 32 30 28 24 22 21 21 21 20 19 19 22 24 26 26 24 23 23 25 28 30 30 30 29 27 26 26 25
57 59 61 63 64 66 67 68 68 67 67 69 70 71 70 71 73 76 77 77 76 75 76 78 81 84 86 87 88 88 86 82 77 70 63 57 49 39 30 23 18 13 7 5 6 8 12 16 20 24 28 30 31 31 30 29 28 27 25 24 21 20 20 20 20 19 19 20 23 25 26 24 22 22 22 25 27 29 29 28 27 25 24 24 23
58 59 61 63 65 66 66 67 67 66 67 69 70 70 70 71 73 75 76 76 75 74 75 77 79 82 84 86 87 87 86 83 79 73 68 64 56 46 36 29 24 19 12 6 4 7 10 13 17 22 25 27 28 27 25 24 24 24 23 22 20 19 20 20 20 19 20 22 24 25 24 22 21 21 22 25 27 27 27 26 25 24 23 22 21
58 60 62 63 64 65 66 66 66 66 67 69 69 69 69 70 72 74 75 75 74 73 74 76 78 80 82 85 86 86 85 84 80 75 71 67 61 51 41 33 28 23 17 10 4 3 7 11 14 18 21 23 23 23 22 22 21 20 20 19 18 18 20 20 20 20 21 23 24 24 22 20 21 21 22 25 26 25 25 25 23 22 21 20 18
59 60 62 64 65 65 66 66 66 66 67 68 68 68 68 69 71 73 73 73 73 72 72 74 76 78 80 82 84 85 84 83 81 76 71 67 63 54 43 34 29 25 21 15 9 3 2 6 9 13 16 18 18 17 17 17 17 16 16 16 16 18 20 21 21 22 23 23 24 23 21 20 20 21 22 24 24 24 24 23 22 20 18 17 15
59 61 63 64 65 65 65 65 66 66 66 67 66 66 66 67 69 71 71 72 72 71 71 72 74 76 78 80 82 83 82 82 80 76 71 66 62 56 46 36 28 24 21 16 12 7 3 4 7 9 10 11 12 12 12 14 16 16 16 16 17 19 21 22 22 22 21 22 21 20 18 19 20 20 21 22 23 22 22 22 20 18 16 15 13
59 61 63 64 65 65 65 65 66 66 66 66 65 65 64 64 67 69 70 69 70 70 70 70 72 75 77 78 80 81 81 80 79 76 72 66 61 57 50 39 28 22 18 15 12 9 6 5 9 11 9 8 9 10 11 14 16 16 15 16 17 19 21 20 20 20 19 19 17 16 17 18 19 19 20 21 21 21 21 20 19 16 14 13 11
60 61 62 63 64 64 65 65 66 66 66 66 65 64 63 63 65 67 67 67 67 68 68 69 71 73 75 76 77 78 78 79 78 76 72 68 62 56 51 43 32 22 16 13 11 10 8 8 11 13 12 10 11 12 13 14 15 15 15 15 16 19 19 18 19 20 19 18 17 15 16 18 18 18 19 20 20 20 20 19 17 14 12 11 8
60 61 62 63 63 64 65 65 66 67 66 65 65 64 63 63 64 66 66 65 66 67 67 68 69 70 73 74 75 76 76 76 75 74 71 68 63 57 52 46 37 27 17 11 9 8 8 9 12 13 13 13 13 14 14 15 15 15 15 16 18 19 19 18 20 22 21 19 18 17 17 18 18 18 19 19 19 19 19 18 16 13 11 9 6
61 62 62 63 63 64 65 66 66 67 66 66 65 65 64 64 65 66 66 65 65 66 66 67 68 69 70 72 73 74 74 73 72 71 70 67 63 59 53 47 41 32 22 13 8 5 5 9 12 13 14 15 15 15 15 15 15 15 16 18 20 20 20 22 24 24 22 20 19 18 18 18 18 18 18 18 18 18 18 17 14 11 9 7 5
61 62 62 62 63 64 65 66 66 66 66 66 66 65 64 64 65 66 66 65 65 65 66 67 68 68 69 70 71 73 73 73 71 69 68 65 62 59 54 49 44 37 28 19 12 8 6 8 11 13 14 14 15 16 16 16 15 15 16 19 21 23 25 26 27 25 23 21 20 19 18 19 18 18 18 18 17 17 17 15 12 9 7 5 3
61 62 62 63 63 63 64 65 65 65 65 65 65 64 64 64 65 66 66 66 65 65 66 67 67 68 68 69 70 71 72 73 72 69 67 65 62 58 55 51 46 40 34 26 18 13 9 9 11 13 14 15 16 17 18 17 16 16 16 19 22 24 26 26 26 25 23 22 21 19 18 19 19 18 18 17 17 17 16 14 11 7 5 4 3
61 62 62 63 63 64 64 64 64 64 65 65 65 65 64 64 64 65 65 66 66 66 66 66 67 67 68 68 69 70 70 71 71 70 68 65 63 59 55 51 47 42 37 31 23 18 14 12 12 13 14 15 17 18 19 19 18 18 18 20 22 23 23 22 22 22 22 22 21 19 18 20 19 18 18 17 16 16 16 14 10 6 3 2 4
62 62 62 62 63 64 64 63 63 64 65 65 65 65 65 64 64 64 65 66 66 66 66 66 66 67 67 68 69 69 70 71 70 69 66 65 63 60 56 52 48 44 39 34 28 22 18 16 15 16 16 17 17 19 20 20 21 21 20 21 22 22 21 20 19 20 22 23 22 19 18 20 20 18 18 17 16 15 15 13 9 5 1 2 5
62 62 62 62 62 62 62 62 63 64 64 64 64 65 65 64 64 65 65 66 67 67 66 66 66 66 67 67 69 70 71 71 71 70 67 65 62 60 57 54 50 45 41 36 31 25 21 19 19 19 19 19 20 21 22 22 23 23 22 22 22 22 21 20 20 21 22 23 23 21 19 20 20 19 18 17 16 15 14 12 9 5 1 2 6
61 61 61 60 60 60 61 61 62 62 62 62 63 64 64 63 64 65 66 67 67 66 65 64 64 64 65 67 68 70 71 72 73 72 70 67 64 61 58 54 51 47 43 39 34 29 24 21 21 21 22 23 23 23 24 25 25 24 24 23 23 23 22 22 22 23 24 25 25 23 20 20 21 20 18 17 16 15 13 11 9 6 3 4 7
60 60 59 58 58 59 59 60 61 62 62 62 63 62 62 62 63 65 66 67 67 66 65 64 63 63 64 65 67 69 71 72 72 71 70 67 65 62 59 56 52 48 44 40 36 32 27 23 21 22 24 25 26 26 26 27 27 26 26 26 25 24 24 24 24 25 26 27 27 25 21 20 21 21 19 17 16 14 13 11 9 7 5 5 8
58 57 56 55 56 57 58 59 60 61 62 62 63 62 62 63 64 65 66 67 66 65 65 64 64 63 63 65 67 68 70 71 71 71 69 67 64 62 59 57 54 50 46 41 37 34 30 25 22 22 24 26 29 30 29 29 29 29 29 28 27 25 26 26 26 26 28 29 28 27 24 22 22 22 19 18 16 14 13 11 9 8 6 6 9
55 54 53 54 55 56 58 59 60 61 61 61 62 63 64 65 65 65 66 66 65 65 64 64 64 64 65 66 67 69 70 71 71 71 69 67 64 62 60 57 55 52 48 43 38 34 32 28 24 22 23 25 29 32 32 32 32 31 31 30 29 28 29 29 27 28 30 30 29 29 27 24 24 22 20 18 17 15 13 11 9 8 8 7 10
52 52 53 54 56 58 59 60 61 60 60 60 60 62 63 64 65 65 65 65 65 65 65 64 65 66 66 67 69 70 71 72 72 71 70 68 65 62 60 58 55 53 50 46 40 35 32 30 26 23 22 24 28 33 35 36 35 34 33 32 32 32 32 30 28 28 31 31 30 30 29 27 26 23 20 18 17 15 13 11 9 9 9 9 10
52 53 55 56 58 59 60 61 60 60 60 60 61 62 63 63 64 64 65 66 66 66 66 66 67 67 67 68 69 70 71 71 71 70 69 68 66 64 61 58 56 53 51 48 44 38 33 30 28 25 22 22 26 31 36 39 39 37 36 36 35 35 34 31 29 29 30 30 31 32 31 29 27 24 21 19 17 15 13 11 9 9 10 10 11
54 56 57 59 60 61 61 61 61 61 61 62 63 63 64 64 64 65 66 66 67 68 68 69 69 69 70 70 71 71 71 71 70 70 68 67 66 64 62 59 56 54 51 49 46 41 35 31 29 27 24 22 23 28 34 40 42 41 40 39 39 38 36 33 31 31 31 31 32 33 33 31 29 26 23 19 17 15 14 12 10 9 11 12 12
57 58 59 61 62 62 62 62 62 62 63 64 65 65 66 67 67 68 69 69 69 70 70 71 72 72 72 72 72 72 71 71 70 69 68 67 65 64 62 59 56 54 52 50 47 43 38 33 30 28 26 23 23 25 31 38 44 45 43 43 42 41 38 36 34 33 33 33 33 35 35 33 30 27 24 20 18 16 15 14 12 10 11 13 13
59 60 61 62 63 63 63 63 64 65 66 67 68 68 69 70 70 71 71 72 72 72 72 73 73 73 72 72 72 71 71 70 69 68 67 66 65 64 62 60 57 54 52 51 48 44 40 36 31 29 27 25 24 24 27 33 41 46 47 46 45 43 41 38 36 36 35 36 36 37 37 33 30 27 24 21 20 19 17 16 14 12 12 14 15
60 62 63 63 64 65 65 65 66 67 68 69 70 70 71 71 71 70 70 71 71 72 72 72 72 72 71 71 70 70 69 68 68 67 66 66 65 64 63 61 58 55 53 51 49 46 42 38 34 30 28 26 25 24 26 29 36 44 49 49 47 45 44 42 40 39 38 39 40 40 38 35 31 28 26 24 23 21 19 18 16 14 13 16 18
62 63 64 65 65 65 66 66 66 67 68 68 69 69 68 68 67 67 67 68 68 69 69 70 70 70 70 70 70 69 69 68 67 67 66 66 65 65 63 61 59 56 54 52 49 46 43 39 36 32 30 28 26 25 25 27 32 39 46 50 50 48 46 45 43 42 41 42 42 42 41 38 34 31 29 27 25 23 21 20 19 17 16 17 19
62 62 63 63 63 64 64 64 64 65 66 66 66 66 65 64 64 64 65 66 66 67 68 69 70 71 71 71 71 70 69 68 68 67 67 66 66 65 64 62 59 56 54 52 50 47 44 40 37 34 32 29 27 25 25 26 29 35 42 49 52 51 49 48 47 45 44 44 44 44 43 40 36 34 32 30 27 25 23 22 21 19 18 18 20
60 61 61 62 62 62 63 63 63 63 64 65 65 64 63 62 63 64 66 67 67 68 70 72 73 74 74 74 73 72 70 69 69 68 68 67 66 66 64 62 59 57 54 52 50 47 44 41 38 36 34 31 28 26 25 25 28 33 38 45 52 54 53 51 50 49 48 47 47 47 46 43 39 37 35 33 31 29 27 24 22 21 19 18 20
61 62 63 63 63 63 63 62 61 62 63 64 63 63 63 64 65 67 69 70 71 72 74 76 78 78 78 76 75 74 72 71 70 69 68 68 67 66 64 62 60 57 55 52 50 47 44 42 39 37 35 33 30 27 25 25 27 31 36 42 49 54 56 55 54 53 51 50 49 49 48 46 43 40 39 38 37 34 31 28 24 23 22 20 20
62 63 64 65 65 65 62 60 60 61 62 63 63 64 66 68 70 72 73 74 76 78 80 81 82 83 81 79 77 76 74 72 71 70 69 68 67 66 65 63 60 58 55 53 50 47 44 42 40 38 36 34 32 29 26 25 27 30 34 39 46 53 57 58 57 56 54 53 52 51 50 49 47 44 43 42 40 38 35 31 28 26 25 23 22
64 65 66 66 66 64 61 59 60 63 64 66 67 70 72 75 77 78 79 80 81 84 85 86 86 86 85 82 79 77 76 74 73 72 70 69 68 67 65 63 61 58 55 52 49 47 45 42 40 38 36 35 34 31 28 25 26 29 32 36 42 50 56 59 59 58 57 56 55 54 52 51 50 48 47 45 44 41 38 35 31 29 28 26 24
67 68 68 67 65 62 60 61 64 67 69 71 73 76 80 82 83 84 84 85 87 89 90 90 90 90 88 84 81 79 77 75 74 73 71 70 68 67 66 64 62 59 56 52 49 46 44 42 41 39 37 35 34 33 30 27 26 28 31 34 40 47 54 59 61 61 60 59 58 56 55 53 52 51 50 48 47 44 42 38 35 32 30 29 27
70 70 68 67 65 64 64 67 70 73 75 77 79 82 85 87 87 87 88 89 91 93 94 94 93 92 89 86 82 80 77 76 75 73 72 70 69 67 66 65 63 60 57 53 49 45 43 42 40 39 38 36 35 33 31 28 26 27 30 33 37 43 50 56 60 62 62 62 61 59 57 56 54 53 52 51 49 47 45 42 39 36 33 32 30
71 70 68 67 67 68 69 72 75 77 79 81 83 86 88 88 88 88 89 92 95 96 97 96 95 93 90 86 82 79 77 76 75 73 72 70 69 68 67 65 63 60 57 55 51 46 43 41 40 39 38 37 35 34 32 30 27 27 29 32 36 41 47 53 59 62 64 64 63 62 60 58 57 56 55 54 52 50 48 45 42 40 37 35 33
72 70 69 69 70 71 73 75 77 79 81 84 86 87 87 86 86 88 91 95 98 99 98 97 95 93 89 85 82 79 77 76 74 73 71 70 69 68 67 66 63 60 58 55 52 48 44 41 39 38 39 38 36 34 33 31 28 27 28 31 34 39 44 50 56 61 64 65 65 64 63 61 59 58 58 57 55 52 51 49 46 43 40 38 36
72 71 70 71 72 73 75 77 79 81 83 85 86 86 85 86 87 91 95 98 99 99 97 95 93 90 87 84 80 78 76 75 74 72 71 70 69 68 67 65 63 61 58 55 52 49 45 42 39 38 39 38 37 35 33 31 29 28 28 30 34 38 42 47 53 59 63 66 67 67 65 63 62 61 60 59 57 55 53 51 49 46 44 42 40
71 71 71 72 73 74 76 78 80 82 83 84 84 85 86 88 92 95 97 98 98 96 94 91 89 87 84 82 79 77 75 74 73 72 71 69 68 68 67 65 63 61 59 56 52 49 46 43 39 38 38 39 37 35 33 32 30 28 28 29 33 37 41 45 50 56 61 65 68 68 68 66 65 64 63 61 60 57 55 54 52 50 48 46 44
71 71 72 72 74 76 77 79 80 81 82 84 86 88 90 93 95 96 96 95 94 91 89 87 85 84 82 80 78 76 75 74 73 71 70 69 69 68 67 65 63 61 59 56 53 50 47 44 40 38 38 39 38 36 34 32 30 29 28 29 32 36 40 44 48 53 59 63 67 69 69 68 67 66 65 64 62 60 58 57 56 54 52 50 48
71 72 73 74 75 77 78 80 81 83 85 87 90 92 93 94 94 93 92 90 88 86 84 83 82 81 79 78 76 75 74 73 72 71 70 70 69 68 67 65 63 61 59 56 53 50 46 44 42 40 39 39 38 37 34 32 31 30 29 29 31 35 39 43 46 50 56 61 66 68 70 70 69 68 68 66 65 63 61 60 59 58 56 54 52
Wind_Direction
357 356 355 355 354 354 354 353 353 353 354 353 352 352 352 352 352 351 350 349 348 347 346 345 344 342 343 345 346 344 342 340 337 334 332 329 323 317 310 300 289 277 265 253 245 238 235 234 232 232 233 234 235 237 239 241 242 242 244 247 250 253 257 260 263 266 269 273 277 281 283 285 287 290 293 294 293 293 293 294 296 299 303 305 307
354 354 354 354 354 353 352 352 352 353 353 352 351 351 351 352 352 351 350 349 349 348 348 347 345 344 345 347 348 347 345 344 341 339 337 333 329 323 315 304 291 278 263 250 241 236 232 230 229 228 228 229 232 234 237 240 241 241 243 247 250 253 256 259 262 263 266 272 277 280 281 283 286 291 292 292 291 292 293 294 298 302 305 306 309
353 353 353 353 352 351 351 351 352 352 352 351 351 351 352 352 352 351 350 350 349 349 349 348 347 347 347 350 350 349 348 347 345 344 341 338 334 329 320 309 294 279 264 250 241 237 232 228 225 224 224 225 227 230 233 236 238 239 241 245 249 253 255 257 260 262 266 273 277 278 280 282 287 289 289 288 289 291 293 296 301 304 305 307 311
351 351 352 352 351 351 351 350 350 351 351 351 351 351 352 352 352 351 350 350 350 351 350 350 350 349 349 351 352 351 351 349 348 347 345 341 339 334 326 315 299 282 265 249 240 235 231 226 223 221 220 220 222 226 229 232 235 236 238 241 245 250 253 256 259 264 269 274 275 276 280 285 287 287 286 287 288 290 294 299 303 304 306 310 314
349 350 351 351 350 351 350 349 349 349 350 350 351 351 351 351 352 351 351 351 352 352 351 351 351 351 350 353 354 353 353 352 351 350 348 345 343 339 332 322 306 287 266 248 237 229 225 222 218 217 216 216 219 223 226 229 230 231 233 237 242 247 252 255 260 265 269 271 272 275 283 287 285 284 284 285 287 290 296 301 303 305 308 313 316
348 349 350 350 350 350 349 348 348 348 349 350 351 351 350 351 352 352 352 352 352 353 353 353 353 352 352 354 356 356 354 355 354 352 351 349 347 343 337 329 313 293 271 251 234 220 215 213 211 211 212 214 218 222 223 224 226 228 232 236 241 246 250 254 259 265 267 267 270 276 281 280 278 279 281 283 287 293 299 302 303 306 311 315 318
347 348 349 349 349 349 348 348 347 347 349 350 351 350 350 351 352 353 352 352 353 354 354 354 354 354 353 354 358 358 356 356 357 356 355 353 351 348 344 336 320 299 279 261 238 215 207 208 207 208 210 213 217 220 221 222 224 227 231 236 240 245 249 252 256 262 264 266 270 273 272 272 273 276 280 283 290 297 300 302 304 308 314 318 319
346 347 348 348 348 348 347 347 347 347 348 349 350 350 350 351 352 353 353 353 354 355 355 356 356 355 354 354 358 0 359 358 359 359 358 356 354 352 350 344 330 310 289 254 223 209 202 203 205 206 209 213 217 219 220 221 222 225 230 234 237 242 247 250 255 260 262 262 263 265 265 268 271 276 281 287 294 298 300 302 305 311 317 319 321
345 346 346 347 347 346 347 347 347 347 348 349 350 350 350 351 352 353 353 353 354 356 357 357 357 356 355 355 358 1 1 0 1 1 2 360 357 356 356 353 341 322 284 195 200 206 201 199 201 204 207 211 215 217 218 219 222 226 230 234 237 240 244 250 255 258 257 253 255 260 264 268 273 279 286 292 295 297 300 303 308 314 318 320 323
344 344 345 346 345 345 346 347 347 347 347 348 349 350 350 351 352 353 353 354 355 357 358 358 358 357 356 356 358 2 3 3 3 4 5 4 1 359 360 359 353 338 277 194 192 203 204 200 198 201 206 210 212 214 216 220 225 229 231 235 237 238 243 251 255 253 250 248 251 258 265 271 278 286 292 294 295 298 302 306 312 317 320 322 327
342 343 344 344 344 345 346 346 347 346 347 348 349 349 350 351 352 353 354 354 355 357 359 359 359 358 358 357 358 2 5 5 5 6 8 7 5 4 4 5 7 8 350 185 185 196 203 199 196 199 204 209 212 214 217 221 225 227 230 234 237 240 246 250 249 247 247 249 255 263 270 277 284 290 292 293 296 300 304 309 315 319 321 325 330
341 342 343 343 344 344 345 346 346 346 346 347 348 349 350 351 352 353 354 355 356 357 359 360 360 359 359 358 358 1 5 7 7 8 10 11 11 10 12 14 20 30 66 160 172 183 190 191 193 197 200 204 208 213 217 221 223 226 230 235 239 243 245 244 243 243 245 251 261 268 274 281 287 289 290 293 298 302 307 312 317 321 323 328 333
340 341 342 342 343 344 344 345 345 346 346 347 348 348 350 351 352 353 354 355 356 357 359 0 0 0 0 0 360 1 4 8 9 9 12 15 17 18 21 23 27 37 65 133 152 168 181 188 191 194 196 200 207 213 219 222 224 227 231 235 238 239 237 236 238 239 240 248 259 266 273 281 286 287 289 295 300 305 310 314 319 322 325 330 334
339 340 340 341 342 343 344 344 345 345 346 347 348 348 349 351 352 353 354 355 356 357 359 360 1 1 1 1 1 1 3 7 10 10 13 17 20 21 24 28 30 34 48 94 133 158 177 186 190 192 195 201 207 215 220 223 226 228 231 233 232 229 227 231 234 235 239 248 257 264 272 280 284 285 290 298 302 307 312 316 320 324 327 332 336
338 339 339 340 341 342 343 343 344 345 346 347 347 348 349 350 352 353 354 355 355 356 358 360 1 2 2 2 3 3 3 6 9 12 14 17 19 19 22 26 29 29 30 48 109 155 174 182 188 192 197 201 208 214 220 223 226 227 229 228 223 220 222 227 230 232 239 247 254 262 271 278 282 285 293 299 303 308 313 317 321 325 329 334 338
337 338 339 339 340 341 342 342 343 344 346 347 347 348 349 350 351 352 353 354 355 356 358 359 0 2 3 4 4 4 4 5 8 12 15 16 17 17 18 20 24 25 21 20 40 140 173 182 188 194 200 205 210 214 217 219 222 224 222 217 213 214 217 221 226 233 240 246 254 264 272 276 279 285 293 299 304 310 314 316 322 327 331 336 341
336 337 338 338 339 340 341 341 342 344 345 346 347 348 349 350 351 352 352 353 354 356 357 359 360 1 3 5 5 5 6 6 7 11 14 16 16 16 15 15 17 19 17 10 4 9 176 189 193 197 202 206 211 213 214 214 213 209 206 205 208 213 213 215 224 233 239 248 258 267 271 272 276 285 294 300 305 310 313 317 323 329 334 339 345
335 336 337 337 338 339 340 340 341 342 344 345 346 348 349 349 350 351 352 352 354 355 356 358 359 1 3 5 6 6 7 7 7 9 12 15 16 15 14 13 12 14 14 6 352 342 311 220 211 210 208 206 207 210 209 203 195 190 192 200 210 213 210 215 227 236 244 255 262 265 265 268 276 286 294 301 307 311 314 319 325 331 337 343 352
334 335 335 336 337 338 338 339 339 340 342 344 345 347 348 349 350 351 351 352 353 354 355 357 359 0 2 4 6 7 7 8 8 8 9 12 15 15 13 11 9 9 10 3 345 327 304 242 223 225 227 219 214 213 207 196 188 186 192 204 213 211 207 216 234 245 254 261 258 254 260 268 277 287 296 303 308 311 315 319 326 334 342 347 358
333 334 334 335 336 336 337 337 338 338 340 342 344 346 347 348 349 350 350 351 352 353 354 356 358 359 1 3 5 7 8 8 9 8 8 9 11 13 13 10 6 3 4 360 345 324 301 258 230 228 230 226 221 215 205 196 191 191 198 207 212 206 203 217 236 245 253 256 250 249 262 271 278 288 297 303 308 311 315 320 327 337 345 350 6
331 332 333 334 334 335 335 335 336 337 339 341 342 344 345 346 347 348 349 350 351 353 353 355 356 358 360 1 3 5 7 9 9 9 8 7 7 8 10 11 7 0 354 351 345 327 297 263 239 231 228 225 222 216 208 202 198 200 205 205 200 197 205 225 238 241 247 249 246 250 263 270 278 289 297 302 307 311 315 320 330 340 347 354 18
330 331 332 333 333 333 334 334 334 335 337 339 341 343 344 344 345 347 348 349 351 352 353 354 355 356 358 360 1 3 5 7 8 9 9 8 6 5 6 8 8 2 352 338 326 316 285 258 244 236 231 227 223 218 216 213 208 209 209 202 195 202 217 230 235 238 243 244 243 249 262 269 277 288 296 301 306 311 314 321 330 340 348 359 35
329 330 331 331 332 332 332 332 333 334 336 338 340 341 342 343 344 345 347 348 349 351 352 353 353 354 356 358 359 1 2 4 6 8 8 8 7 4 3 4 5 4 356 340 318 295 264 244 242 239 234 231 226 222 223 224 221 220 215 205 204 212 221 226 230 235 240 241 241 248 259 266 274 285 293 299 305 310 313 319 328 338 351 7 60
328 329 329 330 330 330 331 331 331 332 334 336 338 339 341 342 342 344 345 347 348 350 351 352 352 352 354 355 357 359 1 2 3 5 6 7 7 6 3 1 1 2 360 350 329 304 275 245 236 237 236 234 231 229 229 230 229 228 223 217 217 221 224 227 231 235 239 240 240 246 257 264 269 280 290 296 302 308 311 316 324 333 353 18 96
326 327 328 328 329 329 329 329 330 331 333 335 337 338 339 340 341 342 344 346 347 348 349 350 350 350 352 353 355 357 359 360 1 2 4 5 6 6 4 1 359 359 359 355 342 318 290 261 240 233 233 234 236 235 234 233 233 232 230 228 229 231 233 234 234 235 237 236 235 242 255 261 266 277 286 292 299 306 309 312 317 323 353 39 129
324 325 326 327 327 327 328 328 329 330 333 335 336 337 338 339 340 341 343 344 345 346 347 348 348 348 349 351 352 354 356 357 358 360 1 3 3 4 4 3 359 357 356 355 350 333 305 277 253 236 229 230 233 236 236 236 235 234 233 232 234 237 238 238 236 234 233 230 230 240 252 259 264 273 282 288 295 301 305 309 309 306 341 83 147
323 323 324 325 325 326 326 326 327 329 332 333 334 336 337 338 339 340 341 343 343 344 344 345 346 346 347 348 350 351 353 354 355 357 358 360 1 2 3 3 1 357 354 353 351 343 323 295 269 248 233 226 227 231 233 234 234 234 233 233 235 237 239 239 237 235 232 228 228 236 248 257 262 268 277 285 291 296 300 304 301 285 234 134 158
321 322 323 324 324 324 325 325 326 329 331 332 333 335 336 337 338 339 340 340 341 342 342 343 344 345 345 346 348 349 351 352 353 354 355 356 358 359 0 1 1 359 355 351 349 346 335 313 287 263 243 229 223 225 228 229 230 231 232 232 233 234 237 239 238 237 233 229 228 232 242 253 258 263 272 280 286 291 295 298 293 272 216 159 166
319 320 321 322 322 323 324 325 327 328 329 330 332 333 334 335 336 337 337 338 339 340 341 342 343 344 344 344 346 347 348 349 350 351 352 353 355 356 357 358 359 359 356 351 347 344 339 327 305 280 257 239 227 222 223 224 226 227 229 231 231 232 235 238 238 237 235 231 229 230 237 248 254 258 266 275 281 286 290 292 287 264 219 174 171
318 319 319 320 321 322 324 325 326 327 328 329 330 331 333 333 334 334 335 336 337 338 339 341 342 342 342 343 344 345 345 346 346 348 349 350 352 354 355 356 357 357 356 353 347 343 339 333 319 297 273 251 235 226 222 221 223 224 226 227 227 228 232 234 234 233 232 230 229 229 233 243 250 254 261 269 275 280 283 285 281 258 223 185 176
316 317 318 319 320 321 323 324 325 326 327 327 329 330 331 332 332 333 334 335 335 337 338 339 339 340 340 341 341 341 342 342 343 345 346 348 349 351 353 354 354 355 355 353 349 343 339 334 326 309 287 265 246 233 224 221 220 221 222 223 223 224 227 229 229 230 230 229 229 229 231 238 245 249 255 264 269 274 276 278 275 255 227 196 182
316 316 317 317 318 320 321 322 323 324 325 325 327 328 329 330 331 331 332 333 333 334 335 336 336 337 337 337 338 338 339 340 341 342 344 345 347 348 350 351 352 353 353 351 348 344 339 334 328 317 299 277 257 241 230 223 219 218 219 221 221 222 224 224 227 232 233 230 228 228 229 234 240 244 250 258 263 267 270 270 268 253 229 204 188
314 314 315 316 317 318 320 321 322 323 323 324 325 326 327 328 329 329 330 330 331 331 332 332 333 333 333 334 334 335 336 337 338 340 341 343 344 346 348 349 350 351 351 350 347 344 340 335 329 321 307 289 269 251 237 228 222 218 218 218 220 221 222 222 224 230 231 228 227 227 228 230 235 240 245 251 256 260 264 263 260 250 230 211 195
312 313 313 314 316 317 319 320 320 321 322 322 323 324 324 325 326 327 327 327 327 328 328 329 329 330 330 331 331 332 333 334 336 337 339 341 343 344 345 346 347 348 349 348 346 342 339 335 330 323 313 299 280 261 245 234 226 221 218 218 219 219 220 219 221 225 225 223 224 227 227 227 230 235 239 243 248 253 257 256 253 245 229 213 201
311 311 312 313 314 316 317 318 319 320 320 321 321 322 322 323 324 324 324 324 325 325 325 326 327 327 328 329 330 330 332 333 334 336 338 340 341 342 343 344 345 346 347 347 345 342 338 334 331 325 317 305 289 271 254 240 231 225 221 219 219 218 218 217 219 221 221 220 222 227 227 225 227 231 233 235 240 245 249 249 245 240 228 213 204
309 310 311 312 313 314 316 317 317 318 318 319 319 320 320 321 322 322 323 323 323 323 324 325 325 326 327 328 329 330 331 332 334 336 338 339 340 341 341 342 343 344 345 345 344 341 337 333 330 326 320 310 295 280 264 249 237 230 225 221 219 218 216 216 217 219 219 219 220 225 226 224 225 230 231 229 231 235 241 242 239 234 225 214 206
309 310 311 312 313 314 315 316 316 317 317 318 318 319 320 321 322 322 323 323 324 324 325 326 327 328 329 329 330 330 331 333 334 336 337 339 339 340 340 340 340 342 343 343 342 340 336 332 328 325 321 313 301 287 273 259 245 236 229 225 221 218 216 215 215 216 218 218 219 223 224 222 222 228 232 231 229 229 234 237 235 230 225 216 206
309 310 311 312 312 313 314 315 316 317 317 318 319 320 321 322 323 324 325 325 326 327 329 329 330 331 331 331 331 331 332 333 334 336 337 338 339 339 339 339 339 340 341 341 341 339 336 331 327 324 321 315 306 293 279 265 253 241 233 227 223 219 216 215 214 215 216 217 218 222 223 220 218 223 229 232 231 230 231 234 233 229 226 218 208
312 312 313 313 313 314 315 317 317 318 318 319 320 321 322 323 324 325 326 328 329 330 331 332 333 333 333 333 333 333 333 334 335 336 337 338 338 338 338 337 337 338 339 339 339 338 335 331 327 323 320 316 309 298 284 269 257 246 236 229 224 220 217 215 214 214 215 216 217 220 222 220 217 219 223 227 228 229 230 234 234 231 228 222 211
313 314 314 314 314 314 316 317 317 318 318 319 319 320 321 323 324 326 327 329 330 331 332 333 334 334 334 334 333 333 334 334 335 336 337 337 337 337 336 335 335 336 337 338 338 336 334 330 326 322 319 316 310 301 288 273 260 250 241 232 226 222 218 215 214 213 214 215 216 218 220 219 218 219 222 224 224 223 223 226 232 233 231 227 217
313 313 313 313 313 313 314 315 316 317 318 319 320 321 322 323 325 327 328 329 330 331 332 333 334 334 334 333 333 333 334 334 335 335 336 336 336 335 335 334 334 335 336 336 336 336 333 329 325 321 318 315 311 304 292 278 263 253 244 235 229 224 220 217 214 213 213 214 215 217 218 217 216 218 221 223 223 220 217 217 223 228 230 228 222
312 312 312 312 312 313 313 313 314 317 319 321 322 323 324 325 326 327 328 329 330 331 332 332 332 333 333 333 333 333 333 334 334 334 335 335 335 334 333 333 332 333 335 335 335 335 333 329 324 320 317 314 311 305 296 282 268 257 248 239 231 226 223 219 216 214 213 213 214 216 216 215 214 216 219 221 221 219 216 214 215 221 223 223 222
312 312 313 313 314 314 313 312 315 319 322 323 324 325 326 327 327 327 328 329 330 330 330 330 331 331 331 332 332 333 333 333 333 333 333 334 334 333 332 331 331 332 333 333 334 334 332 328 323 319 316 313 310 306 299 286 272 260 251 242 235 229 225 222 219 216 213 213 214 215 216 215 214 214 217 220 219 217 215 212 212 217 220 220 220
312 313 315 316 316 315 315 315 318 322 324 325 326 326 327 327 327 327 328 328 329 328 328 329 329 329 330 330 331 332 332 332 332 332 332 332 332 332 331 330 330 331 332 332 333 333 332 328 323 318 315 312 310 306 300 290 276 263 254 245 237 231 228 224 221 218 215 213 213 214 215 215 214 214 216 219 219 216 213 211 210 213 218 219 219
313 314 315 316 318 319 320 321 322 324 325 325 326 325 325 325 326 326 326 326 326 326 326 327 327 327 328 329 330 330 330 330 330 330 331 331 331 331 330 329 329 330 331 331 332 333 331 327 322 317 314 312 309 306 301 293 280 267 257 248 240 234 230 226 223 220 217 214 214 214 214 214 214 214 215 218 218 216 212 210 209 211 215 218 219
313 313 315 317 320 322 322 323 323 323 323 323 323 323 323 323 324 324 323 323 323 323 324 324 325 325 326 327 328 329 329 329 329 329 329 330 330 329 329 328 328 329 330 330 331 332 331 327 322 317 313 311 309 306 301 294 283 270 259 251 243 236 231 228 225 222 219 216 214 214 214 214 213 213 215 217 218 215 211 209 208 209 212 215 217
313 315 317 319 320 321 321 320 320 320 320 320 320 320 320 321 321 320 320 319 320 320 321 322 322 323 324 326 327 327 327 327 327 327 328 329 329 328 327 327 327 328 329 330 330 332 331 326 321 317 313 310 309 306 302 295 286 274 261 252 245 239 233 230 227 224 221 218 216 215 214 213 213 213 214 217 218 215 210 208 208 209 211 214 216
313 315 317 318 318 318 317 317 317 317 317 317 317 317 317 317 317 317 316 316 317 318 319 320 320 321 323 324 325 326 326 326 326 326 327 328 328 327 326 326 327 328 328 329 330 331 330 326 321 317 313 310 308 307 302 296 288 276 263 253 246 241 236 231 228 225 223 220 217 216 215 213 213 213 214 216 218 215 210 207 208 209 210 212 214
311 312 313 314 314 313 312 312 312 313 313 314 314 314 314 314 314 314 314 314 315 316 318 318 319 320 321 322 324 324 325 324 324 325 326 326 326 326 325 325 326 327 327 328 329 330 329 325 321 317 314 311 309 307 303 297 289 279 266 255 247 242 238 233 229 226 224 222 219 217 216 214 213 213 214 215 217 216 211 207 208 210 211 212 213
308 308 308 308 308 307 307 308 309 309 310 310 310 311 311 311 312 312 313 313 314 315 316 317 318 319 320 321 322 323 323 323 323 324 325 325 325 325 325 325 326 326 327 327 329 330 328 325 320 318 315 312 309 307 303 298 290 280 269 258 248 242 239 236 231 227 225 223 221 219 217 216 214 213 213 214 216 216 211 208 208 211 212 212 212
302 302 302 302 302 303 304 305 306 306 307 307 308 309 309 310 311 311 312 312 313 314 315 316 317 318 319 321 321 322 322 322 323 323 324 324 325 324 324 325 325 326 326 327 328 329 327 324 321 318 316 313 310 307 304 298 290 281 271 261 251 243 239 237 233 229 226 224 222 220 219 217 216 215 214 214 215 215 212 209 209 211 213 212 211
Height
10697 10693 10689 10684 10679 10674 10669 10664 10659 10653 10647 10641 10636 10631 10625 10618 10611 10603 10596 10588 10580 10571 10562 10552 10542 10531 10519 10508 10497 10486 10475 10464 10453 10445 10438 10432 10427 10423 10421 10419 10418 10418 10420 10422 10426 10430 10435 10441 10448 10453 10459 10466 10471 10474 10478 10482 10486 10490 10492 10494 10496 10498 10501 10505 10507 10509 10510 10511 10512 10510 10509 10508 10507 10506 10505 10505 10504 10502 10499 10497 10495 10492 10490 10486 10483
10695 10691 10686 10682 10677 10672 10667 10662 10656 10650 10644 10639 10633 10628 10622 10614 10607 10600 10592 10584 10576 10567 10558 10548 10537 10526 10514 10503 10490 10478 10467 10457 10448 10440 10433 10427 10422 10419 10417 10414 10413 10413 10414 10416 10418 10422 10428 10434 10441 10447 10454 10461 10466 10470 10474 10476 10480 10485 10487 10488 10491 10493 10497 10501 10503 10505 10507 10508 10508 10507 10505 10505 10504 10504 10503 10502 10501 10498 10496 10494 10492 10489 10487 10484 10481
10693 10689 10684 10680 10675 10670 10665 10659 10653 10647 10642 10637 10631 10625 10618 10611 10604 10596 10589 10581 10573 10564 10554 10544 10533 10521 10510 10498 10485 10472 10461 10451 10443 10435 10428 10422 10418 10415 10412 10411 10409 10409 10410 10411 10413 10417 10423 10429 10435 10442 10449 10456 10461 10465 10469 10471 10474 10478 10482 10483 10485 10489 10493 10496 10497 10500 10504 10505 10504 10503 10503 10503 10502 10501 10500 10499 10498 10495 10494 10492 10490 10486 10483 10481 10478
10691 10687 10682 10678 10673 10668 10662 10656 10651 10645 10640 10635 10629 10622 10615 10608 10602 10594 10586 10578 10569 10560 10550 10540 10529 10517 10505 10495 10482 10469 10458 10448 10438 10431 10425 10419 10415 10411 10409 10408 10407 10406 10407 10408 10410 10414 10419 10425 10430 10437 10444 10450 10455 10459 10463 10466 10469 10473 10476 10478 10480 10484 10488 10491 10493 10497 10500 10501 10501 10500 10500 10500 10499 10498 10497 10497 10495 10493 10492 10490 10487 10484 10481 10478 10475
10690 10685 10680 10675 10670 10665 10659 10654 10649 10643 10638 10632 10625 10619 10613 10607 10600 10592 10583 10575 10566 10556 10546 10536 10526 10514 10502 10492 10480 10467 10456 10446 10436 10428 10422 10416 10412 10409 10406 10405 10405 10404 10404 10405 10407 10411 10416 10421 10427 10433 10439 10445 10450 10454 10458 10461 10464 10468 10471 10473 10476 10481 10485 10488 10491 10494 10497 10498 10497 10498 10498 10498 10496 10495 10495 10494 10492 10491 10489 10487 10484 10481 10479 10476 10472
10688 10683 10678 10673 10668 10662 10657 10652 10647 10641 10636 10629 10623 10617 10612 10605 10597 10589 10580 10572 10563 10553 10543 10532 10522 10511 10499 10489 10478 10465 10453 10444 10435 10426 10420 10415 10411 10407 10405 10404 10403 10402 10403 10404 10405 10408 10412 10417 10423 10429 10435 10441 10446 10450 10453 10456 10460 10464 10467 10470 10474 10478 10482 10486 10489 10492 10493 10494 10494 10495 10495 10495 10493 10493 10492 10491 10490 10489 10487 10484 10481 10479 10477 10473 10469
10685 10680 10676 10671 10666 10661 10656 10651 10645 10639 10633 10627 10621 10616 10609 10602 10594 10586 10577 10569 10560 10551 10540 10529 10518 10508 10496 10486 10477 10464 10452 10442 10434 10426 10419 10413 10410 10406 10404 10403 10402 10401 10402 10403 10405 10408 10411 10415 10421 10426 10432 10438 10442 10446 10450 10454 10458 10461 10464 10468 10472 10476 10480 10484 10487 10489 10490 10491 10492 10493 10493 10492 10491 10491 10490 10489 10488 10487 10485 10482 10479 10477 10474 10470 10466
10683 10678 10673 10669 10664 10659 10654 10649 10643 10637 10631 10625 10619 10613 10606 10599 10592 10584 10575 10567 10558 10549 10538 10527 10516 10505 10494 10484 10475 10465 10452 10441 10433 10425 10419 10413 10409 10406 10404 10403 10402 10401 10402 10403 10406 10408 10411 10415 10420 10425 10430 10435 10439 10443 10447 10452 10456 10459 10462 10466 10470 10474 10478 10481 10484 10486 10487 10489 10491 10491 10491 10490 10489 10489 10488 10487 10486 10484 10482 10480 10477 10475 10472 10468 10464
10680 10676 10672 10667 10663 10658 10653 10647 10641 10635 10629 10623 10617 10610 10604 10597 10590 10582 10573 10565 10557 10547 10537 10526 10515 10505 10494 10483 10474 10464 10453 10443 10433 10426 10419 10413 10409 10406 10404 10403 10402 10402 10403 10404 10405 10407 10410 10414 10419 10424 10429 10433 10437 10441 10446 10450 10453 10456 10460 10465 10469 10474 10476 10478 10481 10484 10486 10488 10489 10489 10489 10488 10487 10487 10486 10485 10484 10482 10480 10478 10476 10473 10471 10467 10463
10678 10674 10670 10666 10661 10657 10651 10646 10639 10633 10626 10620 10615 10609 10602 10595 10588 10580 10572 10563 10555 10546 10536 10525 10515 10505 10494 10483 10474 10465 10454 10444 10435 10427 10420 10414 10410 10407 10405 10403 10403 10403 10404 10404 10406 10408 10411 10415 10419 10424 10428 10432 10436 10440 10444 10447 10451 10456 10460 10464 10468 10472 10475 10477 10480 10482 10485 10487 10487 10487 10486 10486 10485 10485 10485 10483 10482 10480 10478 10476 10474 10472 10469 10465 10461
10677 10673 10669 10664 10659 10655 10649 10643 10637 10631 10625 10618 10612 10607 10600 10594 10586 10579 10570 10561 10553 10545 10536 10526 10516 10506 10495 10484 10474 10466 10456 10446 10437 10429 10422 10416 10412 10409 10406 10405 10404 10405 10406 10407 10408 10411 10414 10417 10421 10424 10428 10432 10436 10440 10443 10446 10451 10456 10460 10463 10467 10471 10474 10475 10478 10481 10483 10485 10485 10485 10485 10484 10484 10484 10483 10481 10480 10478 10476 10474 10473 10470 10467 10464 10460
10675 10671 10667 10662 10658 10652 10647 10641 10636 10630 10624 10617 10611 10605 10598 10591 10584 10577 10569 10561 10552 10545 10536 10527 10517 10507 10497 10486 10475 10467 10458 10449 10440 10432 10425 10419 10415 10412 10409 10408 10407 10407 10408 10409 10410 10413 10416 10420 10423 10426 10430 10433 10436 10439 10442 10447 10451 10456 10459 10463 10467 10471 10472 10474 10476 10479 10482 10483 10483 10483 10483 10482 10482 10482 10481 10480 10478 10477 10475 10473 10471 10469 10466 10463 10460
10674 10669 10665 10660 10656 10650 10645 10640 10634 10629 10623 10616 10609 10603 10597 10590 10583 10576 10568 10560 10552 10544 10536 10528 10520 10509 10499 10489 10478 10468 10460 10452 10444 10436 10429 10423 10419 10416 10413 10412 10411 10411 10411 10412 10414 10416 10419 10422 10425 10428 10431 10434 10437 10440 10443 10447 10452 10455 10459 10463 10466 10469 10471 10472 10475 10478 10480 10481 10482 10482 10481 10481 10481 10480 10480 10478 10477 10475 10473 10471 10470 10468 10465 10462 10459
10672 10667 10663 10658 10654 10649 10643 10638 10633 10627 10622 10615 10608 10601 10595 10589 10582 10575 10567 10560 10553 10545 10538 10530 10522 10512 10502 10492 10482 10472 10463 10456 10448 10440 10433 10427 10423 10420 10419 10417 10417 10416 10416 10417 10417 10419 10421 10424 10426 10429 10432 10435 10438 10441 10445 10448 10452 10456 10459 10462 10465 10467 10470 10472 10474 10476 10478 10480 10480 10480 10479 10480 10479 10479 10478 10477 10475 10473 10472 10470 10468 10467 10464 10461 10458
10670 10665 10661 10656 10651 10646 10641 10636 10631 10626 10620 10614 10607 10600 10593 10587 10581 10574 10567 10561 10554 10547 10539 10532 10524 10515 10506 10496 10486 10476 10467 10459 10452 10444 10436 10430 10427 10424 10423 10422 10422 10422 10422 10422 10422 10423 10424 10426 10428 10431 10433 10436 10439 10442 10445 10449 10452 10456 10458 10461 10463 10466 10469 10471 10473 10475 10477 10478 10478 10478 10478 10478 10478 10478 10477 10475 10473 10472 10471 10469 10467 10466 10463 10460 10458
10667 10663 10659 10654 10649 10644 10639 10635 10630 10625 10619 10613 10606 10599 10592 10585 10579 10573 10567 10561 10555 10547 10540 10533 10526 10518 10509 10499 10489 10480 10471 10463 10456 10449 10442 10436 10432 10430 10428 10427 10426 10427 10427 10427 10427 10428 10429 10430 10432 10434 10436 10438 10440 10443 10446 10449 10452 10455 10457 10459 10462 10465 10467 10470 10472 10474 10475 10476 10476 10477 10477 10477 10477 10476 10475 10474 10472 10471 10469 10468 10466 10465 10463 10460 10458
10665 10660 10656 10651 10647 10642 10637 10633 10628 10623 10618 10612 10606 10599 10592 10586 10580 10574 10568 10562 10556 10549 10542 10535 10528 10521 10513 10504 10494 10485 10477 10469 10462 10456 10450 10444 10440 10437 10434 10432 10431 10431 10431 10431 10432 10432 10433 10434 10435 10437 10438 10440 10442 10444 10446 10449 10451 10454 10456 10459 10461 10464 10466 10469 10471 10472 10473 10474 10475 10475 10475 10475 10475 10475 10474 10473 10471 10470 10468 10467 10466 10464 10462 10460 10458
10662 10658 10653 10649 10644 10640 10635 10631 10626 10622 10617 10612 10607 10601 10594 10588 10581 10575 10569 10562 10556 10551 10545 10537 10530 10523 10515 10508 10500 10491 10482 10474 10467 10462 10457 10453 10448 10444 10441 10439 10437 10435 10435 10435 10435 10436 10436 10437 10438 10439 10440 10442 10444 10446 10448 10449 10451 10454 10456 10458 10460 10462 10465 10467 10469 10471 10472 10473 10474 10474 10474 10474 10474 10474 10473 10471 10470 10468 10467 10466 10465 10464 10462 10460 10458
10659 10655 10651 10646 10642 10637 10633 10628 10624 10619 10615 10611 10606 10601 10596 10590 10584 10577 10570 10564 10558 10552 10546 10539 10532 10525 10517 10511 10504 10496 10487 10479 10473 10467 10462 10459 10455 10452 10448 10445 10442 10441 10439 10439 10439 10439 10439 10440 10441 10441 10442 10444 10446 10447 10449 10450 10452 10454 10456 10458 10459 10461 10464 10466 10468 10470 10471 10472 10472 10473 10473 10473 10473 10472 10471 10470 10468 10467 10466 10465 10464 10463 10461 10459 10458
10657 10653 10648 10644 10639 10635 10630 10626 10621 10617 10613 10609 10604 10600 10595 10590 10585 10579 10573 10566 10560 10553 10547 10541 10534 10527 10520 10513 10507 10501 10494 10486 10478 10472 10466 10462 10460 10457 10454 10450 10447 10445 10443 10442 10441 10442 10442 10442 10443 10443 10444 10446 10447 10448 10449 10451 10453 10454 10456 10457 10459 10461 10463 10466 10468 10469 10470 10471 10471 10472 10471 10471 10471 10471 10470 10469 10467 10466 10465 10465 10464 10463 10461 10460 10458
10654 10650 10646 10642 10637 10633 10628 10624 10619 10615 10611 10606 10601 10597 10593 10588 10584 10579 10573 10567 10561 10554 10548 10542 10536 10529 10523 10516 10510 10505 10499 10492 10485 10478 10472 10466 10462 10460 10458 10454 10451 10448 10446 10444 10443 10443 10443 10444 10444 10444 10445 10446 10447 10448 10449 10451 10452 10454 10455 10456 10458 10460 10462 10465 10466 10468 10469 10470 10470 10470 10470 10470 10470 10469 10469 10468 10466 10465 10465 10464 10463 10463 10461 10460 10459
10651 10647 10643 10639 10635 10630 10626 10621 10617 10612 10608 10604 10599 10594 10590 10585 10581 10576 10571 10566 10560 10554 10548 10542 10536 10531 10525 10519 10513 10506 10501 10496 10491 10485 10478 10472 10466 10462 10459 10457 10454 10450 10448 10445 10444 10443 10443 10444 10444 10444 10444 10445 10446 10447 10449 10450 10451 10453 10454 10455 10457 10459 10461 10463 10465 10466 10467 10468 10469 10469 10469 10468 10468 10468 10467 10466 10466 10465 10464 10463 10463 10462 10461 10460 10459
10647 10644 10640 10636 10632 10628 10623 10618 10614 10609 10605 10601 10596 10592 10587 10582 10578 10573 10569 10564 10559 10553 10547 10542 10536 10531 10526 10521 10514 10508 10502 10497 10493 10488 10483 10477 10471 10465 10461 10458 10455 10452 10449 10446 10444 10443 10442 10442 10443 10443 10444 10445 10445 10446 10448 10449 10451 10452 10453 10454 10455 10457 10459 10461 10462 10464 10465 10466 10467 10467 10467 10467 10467 10466 10466 10465 10465 10464 10464 10463 10463 10462 10461 10460 10460
10644 10640 10637 10633 10629 10625 10621 10616 10611 10607 10603 10598 10594 10590 10585 10580 10575 10571 10566 10561 10556 10551 10546 10541 10535 10530 10526 10521 10515 10510 10504 10498 10493 10488 10484 10479 10474 10468 10462 10458 10455 10453 10450 10446 10444 10442 10441 10441 10441 10441 10442 10444 10445 10445 10447 10448 10449 10451 10452 10453 10454 10455 10457 10459 10460 10462 10464 10465 10465 10466 10466 10465 10465 10465 10465 10465 10464 10464 10463 10463 10462 10462 10461 10461 10460
10641 10637 10633 10629 10625 10621 10618 10613 10609 10604 10600 10596 10591 10587 10582 10578 10573 10569 10564 10559 10554 10549 10544 10540 10535 10530 10525 10520 10515 10510 10505 10500 10494 10489 10484 10479 10475 10470 10464 10459 10455 10452 10450 10446 10444 10441 10440 10439 10439 10439 10440 10442 10443 10444 10445 10446 10448 10449 10451 10452 10453 10454 10455 10457 10459 10460 10461 10462 10463 10464 10464 10464 10464 10464 10464 10464 10463 10463 10463 10462 10462 10462 10461 10461 10461
10638 10634 10631 10626 10622 10618 10614 10609 10605 10601 10597 10592 10588 10584 10580 10575 10570 10566 10562 10557 10552 10547 10542 10538 10533 10528 10524 10518 10514 10509 10504 10500 10495 10491 10485 10480 10475 10470 10465 10460 10455 10452 10449 10446 10443 10441 10439 10437 10437 10437 10438 10439 10440 10442 10443 10444 10446 10447 10448 10450 10451 10452 10454 10455 10457 10458 10459 10460 10461 10462 10463 10463 10463 10463 10463 10463 10463 10462 10462 10462 10462 10461 10461 10461 10461
10634 10631 10627 10623 10619 10615 10611 10606 10602 10599 10595 10590 10585 10581 10576 10572 10567 10563 10559 10555 10551 10546 10542 10537 10531 10526 10522 10517 10512 10507 10502 10497 10493 10488 10484 10480 10475 10471 10466 10461 10456 10451 10448 10445 10443 10440 10437 10435 10434 10434 10435 10436 10437 10438 10440 10441 10442 10444 10445 10447 10448 10450 10451 10453 10454 10455 10456 10458 10459 10460 10460 10461 10461 10461 10462 10462 10462 10462 10462 10461 10461 10461 10461 10461 10461
10631 10627 10623 10619 10615 10612 10608 10603 10599 10596 10592 10588 10584 10579 10574 10569 10565 10561 10557 10553 10549 10545 10541 10537 10532 10526 10520 10515 10510 10505 10500 10495 10490 10485 10480 10476 10473 10469 10465 10461 10456 10451 10447 10443 10441 10439 10436 10434 10432 10431 10431 10432 10433 10434 10435 10437 10438 10440 10442 10443 10445 10447 10448 10449 10450 10452 10453 10454 10456 10457 10458 10459 10459 10460 10460 10461 10461 10461 10461 10461 10461 10461 10461 10461 10461
10628 10624 10620 10616 10612 10608 10605 10601 10597 10592 10589 10585 10582 10578 10573 10569 10564 10560 10556 10551 10547 10543 10539 10535 10530 10525 10520 10515 10509 10504 10499 10494 10490 10486 10481 10477 10472 10467 10463 10459 10455 10451 10446 10442 10439 10436 10434 10432 10430 10428 10428 10428 10429 10430 10431 10432 10434 10436 10437 10439 10441 10443 10445 10446 10447 10448 10450 10451 10453 10454 10456 10457 10457 10458 10459 10459 10460 10460 10460 10460 10460 10460 10461 10461 10461
10625 10622 10618 10614 10610 10606 10602 10598 10594 10590 10586 10581 10577 10574 10570 10567 10562 10558 10554 10549 10545 10540 10536 10532 10527 10523 10518 10514 10509 10504 10499 10494 10490 10485 10481 10476 10471 10466 10461 10457 10452 10449 10445 10441 10437 10434 10431 10429 10427 10425 10424 10424 10425 10425 10426 10428 10429 10431 10432 10434 10437 10439 10440 10441 10442 10444 10445 10447 10449 10452 10453 10454 10455 10456 10457 10458 10458 10459 10459 10459 10459 10460 10460 10460 10460
10622 10618 10615 10611 10607 10604 10600 10596 10593 10589 10585 10580 10575 10571 10566 10563 10559 10555 10551 10547 10543 10538 10533 10528 10524 10520 10515 10510 10506 10501 10497 10492 10487 10482 10477 10473 10468 10463 10459 10454 10450 10446 10442 10439 10435 10432 10429 10426 10424 10422 10420 10420 10420 10421 10422 10422 10424 10425 10427 10430 10432 10434 10434 10435 10438 10440 10441 10443 10446 10448 10450 10452 10453 10454 10455 10456 10457 10457 10458 10458 10458 10459 10460 10460 10460
10617 10614 10611 10607 10604 10601 10597 10594 10590 10586 10582 10578 10575 10570 10565 10561 10556 10552 10547 10543 10539 10535 10531 10526 10521 10517 10512 10508 10503 10498 10494 10489 10484 10479 10474 10469 10464 10460 10456 10451 10447 10443 10439 10435 10432 10429 10426 10423 10421 10418 10417 10416 10416 10416 10417 10417 10418 10420 10423 10425 10427 10428 10429 10432 10435 10437 10438 10440 10442 10445 10447 10449 10450 10452 10454 10454 10455 10456 10456 10457 10457 10458 10459 10459 10460
10613 10609 10606 10603 10600 10597 10593 10590 10586 10583 10579 10575 10571 10567 10564 10559 10555 10550 10545 10540 10535 10531 10527 10523 10518 10514 10510 10506 10501 10496 10491 10486 10481 10476 10471 10465 10460 10456 10451 10447 10443 10439 10435 10431 10428 10425 10422 10420 10417 10415 10413 10411 10411 10411 10412 10412 10413 10415 10417 10419 10421 10422 10424 10428 10431 10433 10434 10437 10439 10441 10443 10445 10447 10450 10451 10452 10453 10454 10455 10455 10456 10456 10457 10459 10459
10608 10604 10601 10598 10595 10592 10589 10585 10582 10578 10574 10570 10567 10563 10559 10555 10552 10547 10543 10538 10533 10528 10523 10519 10515 10511 10507 10502 10498 10493 10488 10483 10477 10472 10467 10462 10456 10451 10447 10443 10439 10435 10431 10428 10424 10420 10418 10416 10413 10410 10408 10407 10406 10406 10406 10407 10408 10410 10411 10413 10415 10417 10420 10423 10426 10428 10430 10432 10435 10437 10439 10441 10444 10446 10448 10450 10451 10452 10453 10453 10454 10455 10456 10457 10458
10603 10599 10596 10593 10590 10587 10584 10580 10577 10573 10569 10565 10561 10557 10553 10550 10546 10542 10538 10533 10529 10525 10520 10515 10511 10506 10501 10497 10492 10487 10482 10477 10472 10467 10462 10457 10452 10447 10443 10439 10435 10431 10427 10424 10420 10416 10413 10411 10409 10406 10404 10402 10401 10400 10400 10401 10402 10404 10405 10407 10408 10411 10415 10418 10421 10423 10425 10428 10430 10432 10434 10437 10440 10443 10445 10447 10449 10450 10450 10451 10452 10453 10454 10455 10457
10597 10594 10591 10588 10584 10581 10578 10575 10571 10567 10563 10559 10555 10552 10548 10544 10540 10536 10531 10527 10522 10518 10514 10510 10506 10501 10497 10492 10487 10482 10477 10472 10467 10462 10457 10452 10447 10443 10438 10433 10430 10426 10422 10419 10415 10412 10408 10405 10403 10402 10399 10397 10396 10395 10394 10395 10396 10397 10399 10400 10403 10406 10409 10413 10416 10418 10421 10423 10425 10427 10430 10434 10438 10440 10442 10444 10445 10446 10447 10449 10450 10451 10452 10453 10455
10592 10589 10586 10582 10579 10576 10573 10569 10566 10561 10557 10553 10549 10546 10542 10538 10534 10529 10525 10521 10516 10512 10508 10504 10500 10495 10491 10486 10481 10476 10471 10466 10461 10457 10452 10447 10443 10438 10433 10429 10425 10421 10418 10414 10410 10407 10403 10400 10398 10396 10394 10392 10390 10389 10389 10389 10390 10391 10393 10395 10397 10400 10403 10406 10410 10413 10415 10417 10420 10422 10426 10430 10434 10437 10439 10441 10442 10443 10444 10446 10447 10449 10449 10450 10453
10587 10583 10580 10577 10573 10570 10567 10564 10560 10556 10551 10547 10544 10540 10536 10532 10528 10524 10519 10515 10511 10507 10502 10498 10494 10489 10485 10480 10476 10471 10466 10461 10456 10451 10447 10442 10437 10433 10428 10424 10420 10416 10412 10409 10405 10401 10398 10395 10392 10390 10389 10387 10385 10383 10383 10382 10383 10385 10387 10389 10391 10394 10397 10400 10403 10407 10409 10412 10414 10418 10421 10424 10428 10432 10435 10437 10440 10441 10442 10443 10445 10446 10447 10448 10450
10581 10578 10575 10571 10568 10565 10562 10558 10554 10550 10546 10542 10538 10534 10531 10527 10523 10519 10514 10510 10506 10502 10497 10493 10488 10484 10480 10475 10471 10466 10461 10456 10451 10446 10442 10437 10432 10428 10423 10419 10415 10411 10407 10403 10400 10396 10392 10389 10386 10384 10382 10381 10380 10378 10377 10376 10377 10378 10380 10382 10385 10387 10390 10394 10397 10400 10403 10406 10409 10412 10416 10419 10423 10427 10429 10432 10435 10438 10440 10441 10442 10443 10444 10446 10447
10576 10573 10569 10566 10563 10559 10556 10553 10549 10544 10540 10536 10533 10529 10525 10521 10517 10513 10509 10505 10501 10496 10492 10488 10483 10479 10475 10470 10466 10461 10456 10451 10446 10442 10437 10432 10427 10423 10418 10413 10409 10405 10402 10398 10394 10391 10387 10383 10381 10378 10376 10375 10374 10372 10371 10370 10370 10371 10372 10375 10377 10380 10383 10386 10390 10393 10397 10400 10402 10406 10410 10414 10418 10421 10425 10427 10430 10433 10435 10437 10439 10441 10442 10443 10445
10570 10567 10564 10560 10557 10554 10551 10547 10543 10539 10535 10531 10527 10523 10519 10515 10511 10507 10503 10499 10495 10490 10486 10482 10478 10474 10470 10465 10461 10456 10451 10446 10441 10436 10432 10427 10422 10417 10413 10408 10404 10400 10396 10392 10389 10385 10381 10377 10375 10372 10370 10368 10367 10366 10365 10364 10363 10364 10365 10367 10370 10372 10375 10378 10382 10386 10390 10393 10396 10399 10404 10408 10412 10415 10419 10422 10425 10428 10430 10433 10435 10437 10439 10440 10442
10565 10561 10558 10554 10551 10548 10545 10541 10538 10534 10529 10525 10521 10517 10513 10509 10504 10500 10496 10492 10488 10484 10480 10476 10472 10468 10464 10459 10455 10451 10446 10441 10436 10431 10426 10422 10417 10412 10407 10402 10398 10394 10390 10387 10383 10379 10376 10372 10369 10366 10364 10362 10361 10360 10359 10358 10357 10357 10358 10360 10362 10365 10367 10371 10374 10378 10382 10386 10389 10393 10397 10401 10405 10409 10413 10416 10420 10423 10426 10429 10431 10433 10435 10437 10438
10558 10555 10552 10548 10544 10541 10538 10535 10531 10527 10523 10519 10514 10510 10506 10502 10497 10493 10489 10484 10481 10477 10474 10470 10466 10462 10457 10453 10449 10445 10440 10435 10430 10425 10420 10416 10411 10406 10401 10396 10392 10388 10385 10381 10377 10373 10370 10366 10363 10360 10358 10356 10354 10353 10352 10351 10350 10350 10351 10353 10355 10357 10360 10363 10367 10370 10375 10378 10382 10386 10390 10394 10398 10402 10406 10410 10414 10417 10421 10424 10427 10429 10431 10433 10435
10552 10548 10545 10541 10538 10535 10531 10528 10524 10520 10515 10511 10507 10503 10499 10495 10490 10486 10481 10477 10474 10471 10467 10464 10459 10455 10451 10447 10443 10438 10433 10428 10424 10419 10414 10410 10405 10400 10395 10390 10385 10382 10379 10375 10372 10368 10364 10360 10357 10354 10352 10350 10348 10347 10346 10345 10344 10343 10344 10345 10347 10349 10352 10355 10359 10363 10367 10371 10375 10379 10383 10388 10392 10396 10400 10404 10407 10411 10415 10419 10422 10424 10427 10429 10431
10544 10541 10538 10535 10531 10527 10524 10520 10516 10512 10508 10505 10501 10497 10493 10489 10484 10479 10474 10470 10467 10464 10460 10457 10452 10448 10444 10440 10436 10432 10427 10422 10417 10413 10408 10404 10399 10393 10388 10383 10379 10375 10372 10368 10365 10362 10359 10355 10351 10348 10346 10344 10342 10340 10339 10338 10337 10337 10337 10338 10340 10342 10344 10347 10351 10355 10359 10363 10367 10371 10376 10381 10385 10389 10393 10397 10401 10405 10409 10413 10416 10419 10422 10425 10427
10538 10534 10531 10527 10523 10520 10516 10513 10509 10505 10502 10498 10495 10491 10487 10483 10478 10473 10468 10464 10460 10457 10454 10450 10446 10441 10437 10434 10430 10426 10421 10416 10411 10407 10402 10397 10392 10387 10382 10377 10372 10369 10365 10361 10358 10356 10353 10349 10345 10342 10339 10337 10336 10334 10332 10331 10331 10330 10330 10331 10333 10334 10337 10339 10343 10347 10351 10355 10360 10364 10369 10374 10378 10382 10386 10390 10394 10398 10403 10407 10411 10414 10417 10420 10423
10530 10526 10523 10519 10516 10513 10509 10506 10503 10499 10496 10493 10490 10486 10482 10478 10474 10468 10463 10459 10454 10451 10448 10444 10439 10434 10431 10427 10424 10419 10415 10410 10405 10401 10396 10391 10386 10381 10376 10371 10366 10362 10359 10355 10352 10349 10346 10343 10340 10336 10333 10331 10329 10328 10326 10324 10324 10323 10323 10324 10325 10327 10329 10332 10335 10339 10343 10347 10352 10356 10361 10366 10371 10375 10379 10383 10387 10391 10396 10401 10405 10408 10412 10415 10418
10521 10518 10515 10512 10509 10506 10503 10500 10497 10494 10491 10488 10485 10481 10477 10473 10469 10464 10458 10453 10448 10445 10441 10437 10432 10428 10424 10420 10417 10413 10408 10403 10399 10394 10390 10385 10380 10375 10369 10364 10360 10356 10352 10348 10345 10342 10339 10336 10334 10330 10327 10324 10323 10321 10319 10318 10317 10317 10317 10317 10318 10319 10321 10324 10327 10331 10335 10339 10344 10348 10353 10358 10363 10367 10371 10375 10380 10385 10390 10394 10398 10402 10406 10409 10412
10515 10512 10509 10506 10503 10500 10498 10495 10492 10489 10486 10482 10479 10475 10471 10467 10463 10458 10453 10447 10442 10439 10435 10430 10426 10421 10417 10414 10410 10406 10402 10397 10392 10388 10383 10378 10373 10368 10363 10358 10354 10350 10346 10342 10339 10336 10332 10329 10327 10325 10321 10318 10316 10315 10313 10311 10310 10310 10310 10310 10311 10312 10314 10316 10319 10323 10327 10331 10335 10340 10345 10350 10355 10359 10364 10368 10372 10377 10383 10388 10392 10395 10399 10403 10406
10509 10506 10503 10501 10498 10495 10493 10490 10487 10484 10480 10476 10472 10469 10465 10460 10456 10451 10446 10440 10436 10432 10428 10424 10419 10415 10411 10407 10403 10399 10395 10390 10385 10381 10376 10371 10367 10362 10357 10352 10348 10344 10340 10336 10332 10329 10326 10323 10320 10318 10315 10312 10309 10308 10306 10305 10303 10303 10303 10303 10304 10305 10306 10308 10311 10315 10319 10323 10327 10332 10337 10341 10346 10351 10356 10360 10365 10370 10375 10380 10384 10388 10392 10395 10399
10504 10501 10498 10496 10493 10490 10487 10484 10481 10477 10474 10470 10466 10461 10458 10453 10448 10443 10438 10433 10429 10425 10421 10417 10412 10408 10404 10401 10396 10392 10387 10383 10378 10374 10369 10364 10360 10355 10350 10345 10341 10337 10333 10330 10326 10324 10320 10316 10313 10311 10309 10306 10303 10301 10300 10298 10297 10296 10296 10297 10297 10298 10299 10301 10304 10307 10311 10315 10319 10324 10328 10333 10338 10343 10348 10352 10357 10362 10367 10372 10376 10380 10384 10388 10393